Home   Weather   Oberpullendorf   Past weeks

Flag for Austria Past Weather in Oberpullendorf, Burgenland, Austria — Yesterday and Last 2 Weeks

Now
53 °F

Cool.


Feels Like: 52 °F
Forecast: 45 / 71 °F
Wind: 5 mph from North

Location: Eisenstadt

Current Time: Sep 27, 2016 at 4:05:08 AM

Latest Report: Sep 27, 2016 at 2:00 AM


Visibility: N/A

Pressure: 30.21 "Hg

Humidity: 91%

Dew Point: 50 °F

Location of OberpullendorfLocation

Past Weather in Oberpullendorf — Graph

°F

Oberpullendorf Temperature Yesterday

Maximum temperature yesterday: 69 °F (at 3:00 PM)
Minimum temperature yesterday: 49 °F (at 7:00 AM)
Average temperature yesterday: 58 °F

High & Low Weather Summary for the Past Weeks

 TemperatureHumidityPressure
High86 °F (Sep 12, 4:00 PM)95% (Sep 18, 7:00 AM)30.33 "Hg (Sep 18, 7:00 AM)
Low44 °F (Sep 23, 7:00 AM)36% (Sep 13, 4:00 PM)29.75 "Hg (Sep 17, 5:00 AM)
Average63 °F70%30.03 "Hg
* Reported Sep 12 2:00 AM — Sep 27 2:00 AM, Oberpullendorf, Weather by CustomWeather, © 2016

Note: Actual official high and low records may vary slightly from our data, if they occured in-between our weather recording intervals... More about our weather records

Advertising

Oberpullendorf Weather History for the Previous 24 Hours

Scroll right to see more
 ConditionsComfort  
Time TempWeatherWind HumidityBarometerVisibility
2:00 AM
Tue, Sep 27
53 °FCool.5 mph91%30.21 "HgN/A
1:00 AM54 °FCool.3 mph88%30.20 "HgN/A
12:00 AM54 °FCool.2 mph87%30.20 "HgN/A
11:00 PM
Mon, Sep 26
56 °FPassing clouds.3 mph85%30.20 "Hg6 mi
10:00 PM56 °FCool.3 mph83%30.20 "HgN/A
9:00 PM59 °FCool.2 mph75%30.18 "HgN/A
8:00 PM59 °FPassing clouds.5 mph74%30.17 "Hg9 mi
7:00 PM60 °FPassing clouds.2 mph77%30.16 "Hg12 mi
6:00 PM66 °FMild.2 mph64%30.15 "HgN/A
4:00 PM68 °FMild.1 mph54%30.14 "HgN/A
3:00 PM69 °FMild.1 mph53%30.14 "HgN/A
2:00 PM68 °FPartly sunny.2 mph56%30.15 "Hg5 mi
1:00 PM65 °FMild.1 mph62%30.17 "HgN/A
12:00 PM64 °FMild.1 mph63%30.17 "HgN/A
11:00 AM62 °FOvercast.1 mph67%30.18 "Hg6 mi
10:00 AM57 °FCool.1 mph74%30.19 "HgN/A
9:00 AM55 °FCool.1 mph79%30.19 "HgN/A
8:00 AM51 °FOvercast.1 mph87%30.18 "Hg9 mi
7:00 AM49 °FScattered clouds.2 mph90%30.17 "Hg6 mi
6:00 AM50 °FClear.3 mph88%30.16 "Hg12 mi
5:00 AM51 °FClear.2 mph87%30.15 "Hg11 mi
4:00 AM51 °FPassing clouds.3 mph88%30.15 "Hg11 mi
Weather by CustomWeather, © 2016

See weather overviewHow to use our weather pages